| time (UTC) | temp F | wind direction | speed MPH | gust MPH | rain 1hr in | rain 24hr in | rain mn in | humidity % | barometer mb |
| 20260906031231 | 59 | 254 | 0.0 | 0.0 | 0.00 | 0.00 | 0.00 | 51 | 1023.8 |
| 20260906030708 | 59 | 254 | 0.0 | 0.0 | 0.00 | 0.00 | 0.00 | 51 | 1023.8 |
| 20260906030206 | 59 | 254 | 0.0 | 0.0 | 0.00 | 0.00 | 0.00 | 50 | 1023.8 |
| 20260906025725 | 59 | 254 | 0.0 | 1.0 | 0.00 | 0.00 | 0.00 | 49 | 1023.8 |
| 20260906025222 | 60 | 254 | 0.0 | 1.0 | 0.00 | 0.00 | 0.00 | 50 | 1023.7 |
| 20260906024720 | 60 | 254 | 0.0 | 0.0 | 0.00 | 0.00 | 0.00 | 49 | 1023.7 |
| 20260906024218 | 60 | 254 | 0.0 | 0.0 | 0.00 | 0.00 | 0.00 | 47 | 1023.6 |
| 20260906023734 | 60 | 254 | 0.0 | 0.0 | 0.00 | 0.00 | 0.00 | 47 | 1023.6 |
| 20260906023211 | 60 | 254 | 0.0 | 1.0 | 0.00 | 0.00 | 0.00 | 46 | 1023.6 |
| 20260906022708 | 61 | 254 | 0.0 | 1.0 | 0.00 | 0.00 | 0.00 | 46 | 1023.6 |
| 20260906022206 | 61 | 254 | 0.0 | 1.0 | 0.00 | 0.00 | 0.00 | 45 | 1023.5 |
| 20260906021709 | 61 | 254 | 0.0 | 1.0 | 0.00 | 0.00 | 0.00 | 45 | 1023.5 |
| 20260906021226 | 61 | 254 | 0.0 | 1.0 | 0.00 | 0.00 | 0.00 | 45 | 1023.5 |
| 20260906020723 | 61 | 254 | 0.0 | 1.0 | 0.00 | 0.00 | 0.00 | 44 | 1023.5 |
| 20260906020241 | 61 | 254 | 0.0 | 1.0 | 0.00 | 0.00 | 0.00 | 44 | 1023.5 |
| 20260906015713 | 61 | 269 | 0.0 | 1.0 | 0.00 | 0.00 | 0.00 | 44 | 1023.5 |
| 20260906015210 | 61 | 297 | 0.0 | 1.0 | 0.00 | 0.00 | 0.00 | 44 | 1023.5 |
| 20260906014728 | 61 | 245 | 0.0 | 1.0 | 0.00 | 0.00 | 0.00 | 44 | 1023.6 |
| 20260906014225 | 62 | 245 | 0.0 | 1.0 | 0.00 | 0.00 | 0.00 | 44 | 1023.5 |
| 20260906013720 | 62 | 245 | 0.0 | 1.0 | 0.00 | 0.00 | 0.00 | 43 | 1023.6 |
| 20260906013217 | 62 | 237 | 0.0 | 1.0 | 0.00 | 0.00 | 0.00 | 43 | 1023.6 |
| 20260906012715 | 62 | 224 | 0.0 | 1.0 | 0.00 | 0.00 | 0.00 | 43 | 1023.6 |
| 20260906012233 | 63 | 220 | 0.0 | 1.0 | 0.00 | 0.00 | 0.00 | 42 | 1023.6 |
| 20260906011710 | 63 | 131 | 0.0 | 1.0 | 0.00 | 0.00 | 0.00 | 42 | 1023.7 |
| 20260906011207 | 63 | 257 | 0.0 | 1.0 | 0.00 | 0.00 | 0.00 | 42 | 1023.7 |
| 20260906010706 | 64 | 293 | 0.0 | 1.0 | 0.00 | 0.00 | 0.00 | 42 | 1023.7 |
| 20260906010224 | 64 | 293 | 0.0 | 1.0 | 0.00 | 0.00 | 0.00 | 42 | 1023.8 |
| 20260906005743 | 64 | 257 | 0.0 | 1.0 | 0.00 | 0.00 | 0.00 | 42 | 1023.8 |
| 20260906005218 | 64 | 214 | 0.0 | 3.0 | 0.00 | 0.00 | 0.00 | 43 | 1023.7 |
| 20260906004737 | 64 | 246 | 1.0 | 3.0 | 0.00 | 0.00 | 0.00 | 43 | 1023.7 |
| 20260906004213 | 64 | 254 | 0.0 | 1.0 | 0.00 | 0.00 | 0.00 | 43 | 1023.7 |
| 20260906003711 | 64 | 240 | 0.0 | 2.0 | 0.00 | 0.00 | 0.00 | 42 | 1023.7 |
| 20260906003213 | 64 | 225 | 0.0 | 2.0 | 0.00 | 0.00 | 0.00 | 42 | 1023.6 |
| 20260906002731 | 64 | 243 | 0.0 | 3.0 | 0.00 | 0.00 | 0.00 | 42 | 1023.5 |
| 20260906002208 | 65 | 196 | 0.0 | 3.0 | 0.00 | 0.00 | 0.00 | 42 | 1023.6 |
| 20260906001726 | 65 | 254 | 0.0 | 2.0 | 0.00 | 0.00 | 0.00 | 42 | 1023.6 |
| 20260906001224 | 65 | 275 | 0.0 | 2.0 | 0.00 | 0.00 | 0.00 | 42 | 1023.7 |
| 20260906000721 | 65 | 256 | 0.0 | 2.0 | 0.00 | 0.00 | 0.00 | 42 | 1023.6 |
| 20260906000219 | 65 | 257 | 0.0 | 2.0 | 0.00 | 0.00 | 0.00 | 42 | 1023.6 |
| 20260905235718 | 65 | 248 | 1.0 | 2.0 | 0.00 | 0.00 | 0.00 | 42 | 1023.6 |
| 20260905235215 | 65 | 261 | 0.0 | 2.0 | 0.00 | 0.00 | 0.00 | 43 | 1023.5 |
| 20260905234713 | 65 | 257 | 1.0 | 2.0 | 0.00 | 0.00 | 0.00 | 43 | 1023.4 |
| 20260905234231 | 65 | 285 | 0.0 | 2.0 | 0.00 | 0.00 | 0.00 | 44 | 1023.5 |
| 20260905233728 | 66 | 269 | 1.0 | 2.0 | 0.00 | 0.00 | 0.00 | 43 | 1023.4 |
| 20260905233225 | 66 | 262 | 0.0 | 4.0 | 0.00 | 0.00 | 0.00 | 43 | 1023.5 |
| 20260905232723 | 66 | 250 | 1.0 | 4.0 | 0.00 | 0.00 | 0.00 | 42 | 1023.5 |
| 20260905232221 | 66 | 295 | 1.0 | 2.0 | 0.00 | 0.00 | 0.00 | 41 | 1023.5 |
| 20260905231739 | 67 | 158 | 1.0 | 5.0 | 0.00 | 0.00 | 0.00 | 42 | 1023.3 |
| 20260905231236 | 68 | 251 | 1.0 | 5.0 | 0.00 | 0.00 | 0.00 | 41 | 1023.4 |
| 20260905230712 | 68 | 309 | 1.0 | 4.0 | 0.00 | 0.00 | 0.00 | 41 | 1023.3 |
| 20260905230210 | 69 | 117 | 1.0 | 4.0 | 0.00 | 0.00 | 0.00 | 42 | 1023.4 |
| 20260905225708 | 69 | 281 | 1.0 | 4.0 | 0.00 | 0.00 | 0.00 | 42 | 1023.3 |
| 20260905225210 | 70 | 231 | 1.0 | 2.0 | 0.00 | 0.00 | 0.00 | 39 | 1023.3 |
| 20260905224708 | 70 | 203 | 1.0 | 4.0 | 0.00 | 0.00 | 0.00 | 39 | 1023.3 |
| 20260905224226 | 70 | 207 | 1.0 | 4.0 | 0.00 | 0.00 | 0.00 | 37 | 1023.3 |
| 20260905223725 | 70 | 275 | 1.0 | 4.0 | 0.00 | 0.00 | 0.00 | 37 | 1023.3 |
| 20260905223223 | 70 | 259 | 1.0 | 5.0 | 0.00 | 0.00 | 0.00 | 38 | 1023.3 |
| 20260905222721 | 70 | 207 | 2.0 | 5.0 | 0.00 | 0.00 | 0.00 | 37 | 1023.3 |
| 20260905222219 | 71 | 152 | 1.0 | 5.0 | 0.00 | 0.00 | 0.00 | 36 | 1023.3 |
| 20260905221718 | 71 | 265 | 1.0 | 4.0 | 0.00 | 0.00 | 0.00 | 37 | 1023.3 |
| 20260905221216 | 71 | 307 | 1.0 | 8.0 | 0.00 | 0.00 | 0.00 | 36 | 1023.4 |
| 20260905220714 | 72 | 306 | 1.0 | 8.0 | 0.00 | 0.00 | 0.00 | 36 | 1023.3 |
| 20260905220211 | 72 | 303 | 1.0 | 6.0 | 0.00 | 0.00 | 0.00 | 37 | 1023.4 |
| 20260905215710 | 72 | 269 | 1.0 | 6.0 | 0.00 | 0.00 | 0.00 | 37 | 1023.5 |
| 20260905215208 | 72 | 245 | 2.0 | 6.0 | 0.00 | 0.00 | 0.00 | 37 | 1023.6 |
| 20260905214726 | 72 | 240 | 1.0 | 6.0 | 0.00 | 0.00 | 0.00 | 37 | 1023.5 |
| 20260905214207 | 72 | 259 | 2.0 | 5.0 | 0.00 | 0.00 | 0.00 | 38 | 1023.5 |
| 20260905213726 | 72 | 289 | 2.0 | 7.0 | 0.00 | 0.00 | 0.00 | 37 | 1023.4 |
| 20260905213223 | 72 | 269 | 2.0 | 7.0 | 0.00 | 0.00 | 0.00 | 36 | 1023.5 |
| 20260905212721 | 72 | 98 | 2.0 | 6.0 | 0.00 | 0.00 | 0.00 | 36 | 1023.5 |
| 20260905212219 | 72 | 237 | 1.0 | 6.0 | 0.00 | 0.00 | 0.00 | 35 | 1023.5 |
| 20260905211717 | 72 | 258 | 2.0 | 5.0 | 0.00 | 0.00 | 0.00 | 35 | 1023.5 |
| 20260905211214 | 72 | 283 | 1.0 | 5.0 | 0.00 | 0.00 | 0.00 | 35 | 1023.6 |
| 20260905210711 | 73 | 307 | 1.0 | 7.0 | 0.00 | 0.00 | 0.00 | 34 | 1023.5 |
| 20260905210209 | 73 | 346 | 1.0 | 7.0 | 0.00 | 0.00 | 0.00 | 33 | 1023.6 |
| 20260905205708 | 73 | 260 | 2.0 | 8.0 | 0.00 | 0.00 | 0.00 | 32 | 1023.5 |
| 20260905205247 | 73 | 284 | 2.0 | 9.0 | 0.00 | 0.00 | 0.00 | 34 | 1023.5 |
| 20260905204723 | 73 | 274 | 1.0 | 9.0 | 0.00 | 0.00 | 0.00 | 35 | 1023.6 |
| 20260905204222 | 73 | 257 | 3.0 | 7.0 | 0.00 | 0.00 | 0.00 | 33 | 1023.5 |
| 20260905203722 | 74 | 257 | 2.0 | 5.0 | 0.00 | 0.00 | 0.00 | 34 | 1023.6 |
| 20260905203220 | 74 | 264 | 2.0 | 7.0 | 0.00 | 0.00 | 0.00 | 34 | 1023.5 |
| 20260905202718 | 73 | 290 | 1.0 | 7.0 | 0.00 | 0.00 | 0.00 | 34 | 1023.6 |
| 20260905202236 | 73 | 89 | 1.0 | 4.0 | 0.00 | 0.00 | 0.00 | 36 | 1023.6 |
| 20260905201717 | 73 | 78 | 1.0 | 6.0 | 0.00 | 0.00 | 0.00 | 36 | 1023.6 |
| 20260905201236 | 73 | 266 | 3.0 | 7.0 | 0.00 | 0.00 | 0.00 | 37 | 1023.6 |
| 20260905200712 | 73 | 158 | 2.0 | 7.0 | 0.00 | 0.00 | 0.00 | 37 | 1023.6 |
| 20260905200211 | 72 | 280 | 2.0 | 6.0 | 0.00 | 0.00 | 0.00 | 37 | 1023.7 |
| 20260905195710 | 72 | 283 | 2.0 | 6.0 | 0.00 | 0.00 | 0.00 | 38 | 1023.6 |
| 20260905195227 | 72 | 302 | 1.0 | 4.0 | 0.00 | 0.00 | 0.00 | 38 | 1023.7 |
| 20260905194725 | 71 | 265 | 2.0 | 8.0 | 0.00 | 0.00 | 0.00 | 39 | 1023.6 |
| 20260905194224 | 71 | 254 | 2.0 | 8.0 | 0.00 | 0.00 | 0.00 | 38 | 1023.6 |
| 20260905193721 | 71 | 312 | 2.0 | 7.0 | 0.00 | 0.00 | 0.00 | 38 | 1023.8 |
| 20260905193240 | 71 | 272 | 2.0 | 6.0 | 0.00 | 0.00 | 0.00 | 38 | 1023.7 |
| 20260905192717 | 71 | 301 | 2.0 | 8.0 | 0.00 | 0.00 | 0.00 | 38 | 1023.9 |
| 20260905192215 | 71 | 274 | 1.0 | 8.0 | 0.00 | 0.00 | 0.00 | 38 | 1023.8 |
| 20260905191713 | 71 | 288 | 2.0 | 9.0 | 0.00 | 0.00 | 0.00 | 38 | 1023.8 |
| 20260905191211 | 72 | 287 | 1.0 | 9.0 | 0.00 | 0.00 | 0.00 | 37 | 1023.8 |
| 20260905190709 | 72 | 317 | 1.0 | 5.0 | 0.00 | 0.00 | 0.00 | 37 | 1023.7 |
| 20260905190228 | 71 | 273 | 2.0 | 5.0 | 0.00 | 0.00 | 0.00 | 37 | 1023.7 |
| 20260905185747 | 71 | 318 | 3.0 | 8.0 | 0.00 | 0.00 | 0.00 | 37 | 1023.7 |
| 20260905185223 | 71 | 242 | 2.0 | 8.0 | 0.00 | 0.00 | 0.00 | 37 | 1023.8 |
| 20260905184725 | 71 | 269 | 2.0 | 6.0 | 0.00 | 0.00 | 0.00 | 37 | 1023.8 |
| 20260905184224 | 71 | 222 | 2.0 | 4.0 | 0.00 | 0.00 | 0.00 | 36 | 1023.8 |
| 20260905183721 | 71 | 280 | 2.0 | 4.0 | 0.00 | 0.00 | 0.00 | 36 | 1023.8 |
| 20260905183219 | 71 | 213 | 2.0 | 6.0 | 0.00 | 0.00 | 0.00 | 36 | 1023.8 |
| 20260905182715 | 71 | 153 | 2.0 | 6.0 | 0.00 | 0.00 | 0.00 | 36 | 1023.8 |
| 20260905182213 | 70 | 188 | 2.0 | 6.0 | 0.00 | 0.00 | 0.00 | 36 | 1023.8 |
| 20260905181711 | 70 | 115 | 2.0 | 6.0 | 0.00 | 0.00 | 0.00 | 37 | 1023.8 |
| 20260905181209 | 70 | 338 | 2.0 | 5.0 | 0.00 | 0.00 | 0.00 | 35 | 1023.8 |
| 20260905180727 | 70 | 236 | 2.0 | 6.0 | 0.00 | 0.00 | 0.00 | 34 | 1023.9 |
| 20260905180225 | 70 | 297 | 1.0 | 6.0 | 0.00 | 0.00 | 0.00 | 32 | 1023.9 |
| 20260905175723 | 69 | 269 | 1.0 | 7.0 | 0.00 | 0.00 | 0.00 | 30 | 1023.8 |
| 20260905175221 | 69 | 258 | 2.0 | 7.0 | 0.00 | 0.00 | 0.00 | 30 | 1023.7 |
| 20260905174718 | 69 | 249 | 2.0 | 6.0 | 0.00 | 0.00 | 0.00 | 27 | 1023.7 |
| 20260905174216 | 69 | 189 | 1.0 | 6.0 | 0.00 | 0.00 | 0.00 | 26 | 1023.7 |
| 20260905173717 | 69 | 289 | 2.0 | 6.0 | 0.00 | 0.00 | 0.00 | 23 | 1023.6 |
| 20260905173215 | 70 | 307 | 1.0 | 5.0 | 0.00 | 0.00 | 0.00 | 21 | 1023.5 |
| 20260905172712 | 70 | 232 | 1.0 | 4.0 | 0.00 | 0.00 | 0.00 | 20 | 1023.4 |
| 20260905172211 | 70 | 232 | 1.0 | 7.0 | 0.00 | 0.00 | 0.00 | 19 | 1023.3 |
| 20260905171729 | 69 | 174 | 2.0 | 8.0 | 0.00 | 0.00 | 0.00 | 20 | 1023.2 |
| 20260905171227 | 69 | 302 | 2.0 | 8.0 | 0.00 | 0.00 | 0.00 | 21 | 1023.2 |
| 20260905170745 | 69 | 308 | 2.0 | 4.0 | 0.00 | 0.00 | 0.00 | 21 | 1023.3 |
| 20260905170219 | 69 | 167 | 1.0 | 9.0 | 0.00 | 0.00 | 0.00 | 22 | 1023.2 |
| 20260905165738 | 68 | 238 | 2.0 | 9.0 | 0.00 | 0.00 | 0.00 | 21 | 1023.1 |
| 20260905165215 | 68 | 261 | 1.0 | 7.0 | 0.00 | 0.00 | 0.00 | 21 | 1023.0 |
| 20260905164713 | 68 | 271 | 1.0 | 6.0 | 0.00 | 0.00 | 0.00 | 22 | 1022.9 |
| 20260905164212 | 68 | 269 | 2.0 | 7.0 | 0.00 | 0.00 | 0.00 | 21 | 1022.9 |
| 20260905163710 | 67 | 120 | 1.0 | 7.0 | 0.00 | 0.00 | 0.00 | 22 | 1022.9 |
| 20260905163228 | 67 | 169 | 2.0 | 5.0 | 0.00 | 0.00 | 0.00 | 21 | 1023.0 |
| 20260905162745 | 67 | 285 | 2.0 | 8.0 | 0.00 | 0.00 | 0.00 | 21 | 1022.9 |
| 20260905162222 | 67 | 260 | 2.0 | 8.0 | 0.00 | 0.00 | 0.00 | 20 | 1022.9 |
| 20260905161721 | 67 | 266 | 2.0 | 4.0 | 0.00 | 0.00 | 0.00 | 19 | 1022.7 |
| 20260905161239 | 67 | 255 | 1.0 | 6.0 | 0.00 | 0.00 | 0.00 | 18 | 1022.7 |
| 20260905160716 | 67 | 290 | 3.0 | 6.0 | 0.00 | 0.00 | 0.00 | 21 | 1022.6 |
| 20260905160217 | 66 | 214 | 1.0 | 6.0 | 0.00 | 0.00 | 0.00 | 21 | 1022.6 |
| 20260905155715 | 66 | 239 | 1.0 | 3.0 | 0.00 | 0.00 | 0.00 | 23 | 1022.6 |
| 20260905155212 | 66 | 293 | 1.0 | 7.0 | 0.00 | 0.00 | 0.00 | 22 | 1022.5 |
| 20260905154730 | 65 | 302 | 1.0 | 7.0 | 0.00 | 0.00 | 0.00 | 25 | 1022.4 |
| 20260905154229 | 65 | 297 | 1.0 | 5.0 | 0.00 | 0.00 | 0.00 | 23 | 1022.4 |
| 20260905153728 | 65 | 276 | 1.0 | 5.0 | 0.00 | 0.00 | 0.00 | 22 | 1022.4 |
| 20260905153225 | 64 | 102 | 2.0 | 8.0 | 0.00 | 0.00 | 0.00 | 22 | 1022.3 |
| 20260905152723 | 64 | 238 | 2.0 | 8.0 | 0.00 | 0.00 | 0.00 | 23 | 1022.4 |
| 20260905152221 | 64 | 265 | 1.0 | 6.0 | 0.00 | 0.00 | 0.00 | 22 | 1022.2 |
| 20260905151719 | 64 | 304 | 2.0 | 6.0 | 0.00 | 0.00 | 0.00 | 26 | 1022.2 |
| 20260905151217 | 64 | 219 | 1.0 | 6.0 | 0.00 | 0.00 | 0.00 | 24 | 1022.1 |
| 20260905150716 | 63 | 282 | 2.0 | 6.0 | 0.00 | 0.00 | 0.00 | 25 | 1022.0 |
| 20260905150213 | 63 | 202 | 1.0 | 6.0 | 0.00 | 0.00 | 0.00 | 27 | 1021.9 |
| 20260905145732 | 62 | 155 | 2.0 | 6.0 | 0.00 | 0.00 | 0.00 | 25 | 1021.9 |
| 20260905145229 | 62 | 242 | 2.0 | 5.0 | 0.00 | 0.00 | 0.00 | 25 | 1021.8 |
| 20260905144711 | 61 | 289 | 2.0 | 4.0 | 0.00 | 0.00 | 0.00 | 24 | 1021.9 |
| 20260905144231 | 61 | 127 | 1.0 | 4.0 | 0.00 | 0.00 | 0.00 | 26 | 1021.8 |
| 20260905143728 | 61 | 281 | 1.0 | 4.0 | 0.00 | 0.00 | 0.00 | 23 | 1021.7 |
| 20260905143227 | 60 | 110 | 1.0 | 4.0 | 0.00 | 0.00 | 0.00 | 23 | 1021.7 |
| 20260905142745 | 60 | 236 | 1.0 | 5.0 | 0.00 | 0.00 | 0.00 | 25 | 1021.8 |
| 20260905142242 | 59 | 249 | 1.0 | 4.0 | 0.00 | 0.00 | 0.00 | 22 | 1021.7 |
| 20260905141739 | 60 | 283 | 1.0 | 4.0 | 0.00 | 0.00 | 0.00 | 26 | 1021.7 |
| 20260905141215 | 59 | 269 | 1.0 | 3.0 | 0.00 | 0.00 | 0.00 | 26 | 1021.7 |
| 20260905140734 | 59 | 307 | 1.0 | 8.0 | 0.00 | 0.00 | 0.00 | 24 | 1021.6 |
| 20260905140211 | 59 | 266 | 1.0 | 8.0 | 0.00 | 0.00 | 0.00 | 23 | 1021.5 |
| 20260905135730 | 58 | 283 | 1.0 | 5.0 | 0.00 | 0.00 | 0.00 | 21 | 1021.4 |
| 20260905135227 | 57 | 282 | 1.0 | 3.0 | 0.00 | 0.00 | 0.00 | 17 | 1021.4 |
| 20260905134725 | 57 | 213 | 0.0 | 3.0 | 0.00 | 0.00 | 0.00 | 16 | 1021.2 |
| 20260905134224 | 56 | 253 | 1.0 | 2.0 | 0.00 | 0.00 | 0.00 | 15 | 1021.3 |
| 20260905133721 | 57 | 258 | 1.0 | 2.0 | 0.00 | 0.00 | 0.00 | 16 | 1021.1 |
| 20260905133239 | 57 | 243 | 0.0 | 2.0 | 0.00 | 0.00 | 0.00 | 16 | 1021.2 |
| 20260905132715 | 57 | 297 | 0.0 | 3.0 | 0.00 | 0.00 | 0.00 | 17 | 1021.0 |
| 20260905132215 | 57 | 354 | 1.0 | 4.0 | 0.00 | 0.00 | 0.00 | 18 | 1020.9 |
| 20260905131712 | 57 | 259 | 1.0 | 4.0 | 0.00 | 0.00 | 0.00 | 18 | 1020.9 |
| 20260905131231 | 57 | 254 | 0.0 | 2.0 | 0.00 | 0.00 | 0.00 | 20 | 1020.9 |
| 20260905130712 | 58 | 271 | 0.0 | 6.0 | 0.00 | 0.00 | 0.00 | 21 | 1021.0 |
| 20260905130230 | 58 | 250 | 1.0 | 7.0 | 0.00 | 0.00 | 0.00 | 22 | 1020.8 |
| 20260905125730 | 58 | 8 | 0.0 | 7.0 | 0.00 | 0.00 | 0.00 | 24 | 1020.8 |
| 20260905125228 | 58 | 235 | 0.0 | 7.0 | 0.00 | 0.00 | 0.00 | 24 | 1020.7 |
| 20260905124727 | 58 | 304 | 1.0 | 7.0 | 0.00 | 0.00 | 0.00 | 25 | 1020.7 |
| 20260905124226 | 57 | 230 | 1.0 | 5.0 | 0.00 | 0.00 | 0.00 | 25 | 1020.7 |
| 20260905123723 | 57 | 136 | 1.0 | 2.0 | 0.00 | 0.00 | 0.00 | 24 | 1020.7 |
| 20260905123221 | 57 | 338 | 0.0 | 3.0 | 0.00 | 0.00 | 0.00 | 25 | 1020.7 |
| 20260905122739 | 57 | 294 | 1.0 | 3.0 | 0.00 | 0.00 | 0.00 | 24 | 1020.7 |
| 20260905122215 | 57 | 260 | 1.0 | 3.0 | 0.00 | 0.00 | 0.00 | 23 | 1020.7 |
| 20260905121713 | 57 | 259 | 0.0 | 3.0 | 0.00 | 0.00 | 0.00 | 22 | 1020.7 |
| 20260905121251 | 56 | 243 | 1.0 | 3.0 | 0.00 | 0.00 | 0.00 | 21 | 1020.7 |
| 20260905120728 | 55 | 249 | 0.0 | 3.0 | 0.00 | 0.00 | 0.00 | 21 | 1020.7 |
| 20260905120226 | 54 | 332 | 0.0 | 2.0 | 0.00 | 0.00 | 0.00 | 22 | 1020.7 |
| 20260905115745 | 53 | 20 | 0.0 | 1.0 | 0.00 | 0.00 | 0.00 | 23 | 1020.9 |
| 20260905115221 | 52 | 89 | 0.0 | 3.0 | 0.00 | 0.00 | 0.00 | 22 | 1020.7 |
| 20260905114719 | 51 | 115 | 1.0 | 4.0 | 0.00 | 0.00 | 0.00 | 24 | 1020.7 |
| 20260905114219 | 50 | 268 | 1.0 | 4.0 | 0.00 | 0.00 | 0.00 | 28 | 1020.7 |
| 20260905113721 | 48 | 255 | 0.0 | 3.0 | 0.00 | 0.00 | 0.00 | 32 | 1020.7 |
| 20260905113239 | 48 | 169 | 0.0 | 1.0 | 0.00 | 0.00 | 0.00 | 35 | 1020.7 |
| 20260905112716 | 48 | 328 | 0.0 | 1.0 | 0.00 | 0.00 | 0.00 | 34 | 1020.8 |
| 20260905112213 | 48 | 262 | 0.0 | 1.0 | 0.00 | 0.00 | 0.00 | 35 | 1020.8 |
| 20260905111712 | 48 | 259 | 0.0 | 1.0 | 0.00 | 0.00 | 0.00 | 36 | 1020.8 |
| 20260905111230 | 48 | 259 | 0.0 | 1.0 | 0.00 | 0.00 | 0.00 | 36 | 1020.8 |
| 20260905110729 | 48 | 259 | 0.0 | 0.0 | 0.00 | 0.00 | 0.00 | 36 | 1020.9 |
| 20260905110226 | 48 | 259 | 0.0 | 0.0 | 0.00 | 0.00 | 0.00 | 38 | 1020.9 |
| 20260905105725 | 48 | 259 | 0.0 | 1.0 | 0.00 | 0.00 | 0.00 | 38 | 1020.8 |
| 20260905105222 | 48 | 259 | 0.0 | 1.0 | 0.00 | 0.00 | 0.00 | 38 | 1020.9 |
| 20260905104720 | 49 | 259 | 0.0 | 0.0 | 0.00 | 0.00 | 0.00 | 39 | 1021.0 |
| 20260905104219 | 48 | 259 | 0.0 | 0.0 | 0.00 | 0.00 | 0.00 | 39 | 1021.0 |
| 20260905103717 | 48 | 259 | 0.0 | 1.0 | 0.00 | 0.00 | 0.00 | 40 | 1021.0 |
| 20260905103255 | 48 | 259 | 0.0 | 1.0 | 0.00 | 0.00 | 0.00 | 41 | 1020.9 |
| 20260905102729 | 48 | 25 | 0.0 | 0.0 | 0.00 | 0.00 | 0.00 | 41 | 1021.0 |
| 20260905102247 | 48 | 25 | 0.0 | 1.0 | 0.00 | 0.00 | 0.00 | 42 | 1021.1 |
| 20260905101724 | 48 | 25 | 0.0 | 1.0 | 0.00 | 0.00 | 0.00 | 42 | 1021.1 |
| 20260905101222 | 48 | 27 | 0.0 | 1.0 | 0.00 | 0.00 | 0.00 | 42 | 1021.1 |
| 20260905100724 | 48 | 27 | 0.0 | 0.0 | 0.00 | 0.00 | 0.00 | 43 | 1021.0 |
| 20260905100222 | 48 | 27 | 0.0 | 1.0 | 0.00 | 0.00 | 0.00 | 43 | 1021.0 |
| 20260905095721 | 48 | 27 | 0.0 | 1.0 | 0.00 | 0.00 | 0.00 | 43 | 1020.8 |
| 20260905095218 | 47 | 51 | 0.0 | 0.0 | 0.00 | 0.00 | 0.00 | 44 | 1020.8 |
| 20260905094716 | 47 | 51 | 0.0 | 1.0 | 0.00 | 0.00 | 0.00 | 45 | 1020.9 |
| 20260905094234 | 47 | 51 | 0.0 | 1.0 | 0.00 | 0.00 | 0.00 | 46 | 1020.9 |
| 20260905093731 | 47 | 253 | 0.0 | 0.0 | 0.00 | 0.00 | 0.00 | 47 | 1021.0 |
| 20260905093229 | 47 | 253 | 0.0 | 0.0 | 0.00 | 0.00 | 0.00 | 47 | 1021.0 |
| 20260905092727 | 47 | 253 | 0.0 | 0.0 | 0.00 | 0.00 | 0.00 | 48 | 1020.9 |
| 20260905092226 | 47 | 253 | 0.0 | 0.0 | 0.00 | 0.00 | 0.00 | 49 | 1020.9 |
| 20260905091724 | 47 | 253 | 0.0 | 0.0 | 0.00 | 0.00 | 0.00 | 48 | 1020.9 |
| 20260905091222 | 47 | 253 | 0.0 | 0.0 | 0.00 | 0.00 | 0.00 | 49 | 1021.0 |
| 20260905090719 | 47 | 253 | 0.0 | 0.0 | 0.00 | 0.00 | 0.00 | 48 | 1021.1 |
| 20260905090216 | 47 | 253 | 0.0 | 0.0 | 0.00 | 0.00 | 0.00 | 48 | 1021.1 |
| 20260905085715 | 47 | 253 | 0.0 | 0.0 | 0.00 | 0.00 | 0.00 | 48 | 1021.2 |
| 20260905085216 | 48 | 253 | 0.0 | 0.0 | 0.00 | 0.00 | 0.00 | 48 | 1021.2 |
| 20260905084735 | 48 | 253 | 0.0 | 0.0 | 0.00 | 0.00 | 0.00 | 48 | 1021.3 |
| 20260905084232 | 48 | 253 | 0.0 | 0.0 | 0.00 | 0.00 | 0.00 | 48 | 1021.4 |
| 20260905083729 | 48 | 253 | 0.0 | 0.0 | 0.00 | 0.00 | 0.00 | 48 | 1021.4 |
| 20260905083246 | 48 | 253 | 0.0 | 1.0 | 0.00 | 0.00 | 0.00 | 48 | 1021.4 |
| 20260905082723 | 47 | 253 | 0.0 | 1.0 | 0.00 | 0.00 | 0.00 | 49 | 1021.3 |
| 20260905082221 | 48 | 253 | 0.0 | 0.0 | 0.00 | 0.00 | 0.00 | 49 | 1021.3 |
| 20260905081720 | 48 | 253 | 0.0 | 0.0 | 0.00 | 0.00 | 0.00 | 48 | 1021.4 |
| 20260905081217 | 49 | 253 | 0.0 | 0.0 | 0.00 | 0.00 | 0.00 | 47 | 1021.4 |
| 20260905080735 | 49 | 253 | 0.0 | 1.0 | 0.00 | 0.00 | 0.00 | 47 | 1021.5 |
| 20260905080233 | 49 | 253 | 0.0 | 1.0 | 0.00 | 0.00 | 0.00 | 48 | 1021.5 |
| 20260905075732 | 49 | 253 | 0.0 | 0.0 | 0.00 | 0.00 | 0.00 | 49 | 1021.4 |
| 20260905075229 | 48 | 253 | 0.0 | 0.0 | 0.00 | 0.00 | 0.00 | 49 | 1021.5 |
| 20260905074727 | 49 | 253 | 0.0 | 0.0 | 0.00 | 0.00 | 0.00 | 49 | 1021.5 |
| 20260905074225 | 49 | 253 | 0.0 | 0.0 | 0.00 | 0.00 | 0.00 | 48 | 1021.5 |
| 20260905073723 | 49 | 253 | 0.0 | 0.0 | 0.00 | 0.00 | 0.00 | 49 | 1021.6 |
| 20260905073241 | 49 | 253 | 0.0 | 0.0 | 0.00 | 0.00 | 0.00 | 48 | 1021.6 |
| 20260905072718 | 49 | 253 | 0.0 | 0.0 | 0.00 | 0.00 | 0.00 | 48 | 1021.6 |
| 20260905072215 | 49 | 253 | 0.0 | 0.0 | 0.00 | 0.00 | 0.00 | 49 | 1021.5 |
| 20260905071718 | 49 | 253 | 0.0 | 0.0 | 0.00 | 0.00 | 0.00 | 49 | 1021.5 |
| 20260905071216 | 49 | 253 | 0.0 | 0.0 | 0.00 | 0.00 | 0.00 | 49 | 1021.5 |
| 20260905070754 | 49 | 253 | 0.0 | 0.0 | 0.00 | 0.00 | 0.00 | 48 | 1021.6 |
| 20260905070232 | 49 | 253 | 0.0 | 0.0 | 0.00 | 0.00 | 0.00 | 48 | 1021.6 |
| 20260905065730 | 49 | 253 | 0.0 | 0.0 | 0.00 | 0.00 | 0.00 | 47 | 1021.5 |
| 20260905065248 | 50 | 253 | 0.0 | 0.0 | 0.00 | 0.00 | 0.00 | 47 | 1021.6 |
| 20260905064725 | 50 | 253 | 0.0 | 0.0 | 0.00 | 0.00 | 0.00 | 46 | 1021.6 |
| 20260905064224 | 50 | 253 | 0.0 | 0.0 | 0.00 | 0.00 | 0.00 | 46 | 1021.5 |
| 20260905063722 | 50 | 253 | 0.0 | 0.0 | 0.00 | 0.00 | 0.00 | 46 | 1021.5 |
| 20260905063239 | 50 | 253 | 0.0 | 0.0 | 0.00 | 0.00 | 0.00 | 46 | 1021.5 |
| 20260905062716 | 50 | 253 | 0.0 | 0.0 | 0.00 | 0.00 | 0.00 | 45 | 1021.4 |
| 20260905062214 | 51 | 253 | 0.0 | 0.0 | 0.00 | 0.00 | 0.00 | 45 | 1021.4 |
| 20260905061732 | 51 | 253 | 0.0 | 0.0 | 0.00 | 0.00 | 0.00 | 45 | 1021.4 |
| 20260905061230 | 51 | 253 | 0.0 | 0.0 | 0.00 | 0.00 | 0.00 | 45 | 1021.4 |
| 20260905060729 | 51 | 253 | 0.0 | 0.0 | 0.00 | 0.00 | 0.00 | 45 | 1021.5 |
| 20260905060247 | 51 | 253 | 0.0 | 0.0 | 0.00 | 0.00 | 0.00 | 44 | 1021.6 |
| 20260905055724 | 52 | 253 | 0.0 | 0.0 | 0.00 | 0.00 | 0.00 | 43 | 1021.5 |
| 20260905055221 | 53 | 253 | 0.0 | 1.0 | 0.00 | 0.00 | 0.00 | 42 | 1021.5 |
| 20260905054719 | 53 | 253 | 0.0 | 1.0 | 0.00 | 0.00 | 0.00 | 42 | 1021.5 |
| 20260905054238 | 53 | 253 | 0.0 | 1.0 | 0.00 | 0.00 | 0.00 | 42 | 1021.6 |
| 20260905053720 | 53 | 253 | 0.0 | 0.0 | 0.00 | 0.00 | 0.00 | 43 | 1021.6 |
| 20260905053218 | 53 | 253 | 0.0 | 1.0 | 0.00 | 0.00 | 0.00 | 43 | 1021.6 |
| 20260905052736 | 53 | 253 | 0.0 | 1.0 | 0.00 | 0.00 | 0.00 | 43 | 1021.6 |
| 20260905052233 | 53 | 253 | 0.0 | 1.0 | 0.00 | 0.00 | 0.00 | 42 | 1021.6 |
| 20260905051731 | 53 | 253 | 0.0 | 1.0 | 0.00 | 0.00 | 0.00 | 42 | 1021.6 |
| 20260905051229 | 54 | 252 | 0.0 | 1.0 | 0.00 | 0.00 | 0.00 | 42 | 1021.6 |
| 20260905050747 | 54 | 252 | 0.0 | 1.0 | 0.00 | 0.00 | 0.00 | 42 | 1021.7 |
| 20260905050223 | 54 | 255 | 0.0 | 1.0 | 0.00 | 0.00 | 0.00 | 42 | 1021.7 |
| 20260905045742 | 54 | 255 | 0.0 | 1.0 | 0.00 | 0.00 | 0.00 | 42 | 1021.7 |
| 20260905045218 | 54 | 257 | 0.0 | 1.0 | 0.00 | 0.00 | 0.00 | 43 | 1021.7 |
| 20260905044716 | 54 | 257 | 0.0 | 1.0 | 0.00 | 0.00 | 0.00 | 44 | 1021.6 |
| 20260905044215 | 54 | 257 | 0.0 | 1.0 | 0.00 | 0.00 | 0.00 | 44 | 1021.5 |
| 20260905043753 | 54 | 257 | 0.0 | 1.0 | 0.00 | 0.00 | 0.00 | 46 | 1021.5 |
| 20260905043230 | 54 | 257 | 0.0 | 1.0 | 0.00 | 0.00 | 0.00 | 45 | 1021.4 |
| 20260905042748 | 54 | 257 | 0.0 | 1.0 | 0.00 | 0.00 | 0.00 | 47 | 1021.4 |
| 20260905042225 | 54 | 255 | 0.0 | 1.0 | 0.00 | 0.00 | 0.00 | 50 | 1021.4 |
| 20260905041723 | 54 | 255 | 0.0 | 1.0 | 0.00 | 0.00 | 0.00 | 51 | 1021.4 |
| 20260905041221 | 54 | 253 | 0.0 | 1.0 | 0.00 | 0.00 | 0.00 | 52 | 1021.4 |
| 20260905040718 | 54 | 251 | 0.0 | 1.0 | 0.00 | 0.00 | 0.00 | 54 | 1021.3 |
| 20260905040216 | 54 | 252 | 0.0 | 1.0 | 0.00 | 0.00 | 0.00 | 54 | 1021.4 |
| 20260905035720 | 54 | 252 | 0.0 | 1.0 | 0.00 | 0.00 | 0.00 | 54 | 1021.3 |
| 20260905035218 | 53 | 250 | 0.0 | 1.0 | 0.00 | 0.00 | 0.00 | 56 | 1021.2 |
| 20260905034716 | 53 | 250 | 0.0 | 1.0 | 0.00 | 0.00 | 0.00 | 58 | 1021.2 |
| 20260905034235 | 53 | 250 | 0.0 | 1.0 | 0.00 | 0.00 | 0.00 | 59 | 1021.2 |
| 20260905033733 | 53 | 248 | 0.0 | 1.0 | 0.00 | 0.00 | 0.00 | 60 | 1021.2 |
| 20260905033231 | 53 | 248 | 0.0 | 1.0 | 0.00 | 0.00 | 0.00 | 61 | 1021.1 |
| 20260905032726 | 53 | 248 | 0.0 | 1.0 | 0.00 | 0.00 | 0.00 | 62 | 1021.0 |
| 20260905032244 | 53 | 247 | 0.0 | 1.0 | 0.00 | 0.00 | 0.00 | 62 | 1020.9 |
| 20260905031721 | 54 | 247 | 0.0 | 1.0 | 0.00 | 0.00 | 0.00 | 61 | 1020.9 |